Tracking 35274 objects as of 11-Sep-2026
HD Live streaming from Space Station
objects crossing your sky now

ONEWEB-0456

Track ONEWEB-0456 now!
10-day predictions
ONEWEB-0456 is classified as:


NORAD ID: 51646
Int'l Code: 2022-012AA
Launch date: February 10, 2022
Source: United Kingdom (UK)
Launch site: FRENCH GUIANA (FRGUI)
Your satellite tracking list
Your tracking list is empty




NASA's NSSDC Master Catalog

Two Line Element Set (TLE):
1 51646U 22012AA  26253.71020645  .00000237  00000-0  64207-3 0  9996
2 51646  87.8901  19.2302 0001801  95.3103 264.8229 13.10376450220541
Source of the keplerian elements: AFSPC